Location: Unspecified
(0.0000°N, 0.0000°E)
Time: 20:30:44
(UTC+00:00)

Tiangong - Visible Passes

Search period start: 13 September 2024 00:00
Search period end: 23 September 2024 00:00
Orbit: 375 x 377 km, 41.5° (Epoch: 13 September)

Date Brightness Start Highest point End Pass type
(mag) Time Alt. Az. Time Alt. Az. Time Alt. Az.
13 Sep 0.7 18:48:07 10° W 18:50:14 17° NW 18:52:22 10° N visible
14 Sep 0.9 04:41:18 10° NNE 04:42:30 12° NE 04:43:41 10° ENE visible
15 Sep -2.2 05:13:30 10° NW 05:16:36 85° NE 05:19:42 10° SE visible
16 Sep 0.1 04:14:39 24° ENE 04:14:39 24° ENE 04:16:45 10° ESE visible
17 Sep -1.4 04:48:11 35° SW 04:48:11 35° SW 04:50:54 10° SSE visible
